| time (UTC) | temp C | wind direction | speed KPH | gust KPH | rain 1hr cm | rain 24hr cm | rain mn cm | humidity % | barometer mb |
| 20260507170003 | 16 | 74 | 4.8 | 14.5 | 0.00 | 0.58 | 0.05 | 41 | 1005.7 |
| 20260507165717 | 16 | 269 | 6.4 | 20.9 | 0.00 | 0.58 | 0.05 | 42 | 1005.8 |
| 20260507164949 | 16 | 55 | 4.8 | 20.9 | 0.00 | 0.58 | 0.05 | 38 | 1005.7 |
| 20260507164420 | 16 | 83 | 4.8 | 12.9 | 0.00 | 0.58 | 0.05 | 41 | 1006.1 |
| 20260507163919 | 15 | 92 | 4.8 | 12.9 | 0.00 | 0.58 | 0.05 | 42 | 1006.0 |
| 20260507163351 | 15 | 57 | 6.4 | 22.5 | 0.00 | 0.58 | 0.05 | 43 | 1006.2 |
| 20260507162849 | 15 | 0 | 6.4 | 22.5 | 0.00 | 0.58 | 0.05 | 44 | 1006.3 |
| 20260507162320 | 15 | 84 | 4.8 | 19.3 | 0.00 | 0.58 | 0.05 | 47 | 1006.3 |
| 20260507162028 | 15 | 351 | 6.4 | 16.1 | 0.00 | 0.58 | 0.05 | 44 | 1006.4 |
| 20260507161231 | 15 | 213 | 4.8 | 19.3 | 0.00 | 0.58 | 0.05 | 45 | 1006.3 |
| 20260507160732 | 15 | 0 | 4.8 | 17.7 | 0.00 | 0.58 | 0.05 | 46 | 1006.3 |
| 20260507160205 | 15 | 129 | 3.2 | 11.3 | 0.00 | 0.58 | 0.05 | 49 | 1006.4 |
| 20260507155707 | 15 | 255 | 3.2 | 16.1 | 0.00 | 0.58 | 0.05 | 53 | 1006.4 |
| 20260507155420 | 14 | 128 | 4.8 | 16.1 | 0.00 | 0.58 | 0.05 | 52 | 1006.4 |
| 20260507154652 | 15 | 33 | 4.8 | 14.5 | 0.00 | 0.58 | 0.05 | 55 | 1006.5 |
| 20260507154132 | 15 | 345 | 4.8 | 12.9 | 0.00 | 0.58 | 0.05 | 59 | 1006.5 |
| 20260507153607 | 14 | 221 | 3.2 | 9.7 | 0.00 | 0.58 | 0.05 | 59 | 1006.5 |
| 20260507153106 | 14 | 48 | 3.2 | 8.0 | 0.00 | 0.58 | 0.05 | 61 | 1006.5 |
| 20260507152609 | 13 | 55 | 3.2 | 8.0 | 0.00 | 0.58 | 0.05 | 61 | 1006.6 |
| 20260507152102 | 13 | 5 | 3.2 | 17.7 | 0.00 | 0.58 | 0.05 | 62 | 1006.7 |
| 20260507151602 | 13 | 43 | 4.8 | 17.7 | 0.00 | 0.58 | 0.05 | 62 | 1006.5 |
| 20260507151036 | 13 | 244 | 3.2 | 16.1 | 0.00 | 0.58 | 0.05 | 60 | 1006.5 |
| 20260507150525 | 13 | 240 | 3.2 | 16.1 | 0.00 | 0.58 | 0.05 | 61 | 1006.6 |
| 20260507150242 | 14 | 261 | 3.2 | 6.4 | 0.00 | 0.58 | 0.05 | 62 | 1006.7 |
| 20260507145510 | 14 | 250 | 3.2 | 8.0 | 0.00 | 0.58 | 0.05 | 65 | 1006.8 |
| 20260507145010 | 13 | 97 | 3.2 | 8.0 | 0.00 | 0.58 | 0.05 | 67 | 1006.8 |
| 20260507144451 | 13 | 294 | 3.2 | 6.4 | 0.00 | 0.58 | 0.05 | 65 | 1006.9 |
| 20260507143950 | 13 | 15 | 3.2 | 9.7 | 0.00 | 0.58 | 0.05 | 63 | 1006.8 |
| 20260507143437 | 13 | 198 | 3.2 | 8.0 | 0.00 | 0.58 | 0.05 | 66 | 1006.7 |
| 20260507143432 | 13 | 27 | 3.2 | 9.7 | 0.00 | 0.58 | 0.05 | 62 | 1006.9 |
| 20260507142408 | 13 | 225 | 3.2 | 8.0 | 0.00 | 0.58 | 0.05 | 63 | 1006.8 |
| 20260507142121 | 13 | 272 | 3.2 | 6.4 | 0.00 | 0.58 | 0.05 | 62 | 1006.9 |
| 20260507141826 | 13 | 96 | 4.8 | 16.1 | 0.00 | 0.58 | 0.05 | 63 | 1006.8 |
| 20260507140808 | 13 | 56 | 3.2 | 16.1 | 0.00 | 0.58 | 0.05 | 64 | 1006.9 |
| 20260507140307 | 13 | 118 | 3.2 | 8.0 | 0.00 | 0.58 | 0.05 | 66 | 1006.9 |
| 20260507135806 | 13 | 102 | 3.2 | 8.0 | 0.00 | 0.58 | 0.05 | 64 | 1006.7 |
| 20260507135306 | 13 | 321 | 3.2 | 8.0 | 0.00 | 0.58 | 0.05 | 65 | 1006.8 |
| 20260507134805 | 13 | 54 | 3.2 | 6.4 | 0.00 | 0.58 | 0.05 | 63 | 1006.7 |
| 20260507134239 | 13 | 38 | 3.2 | 8.0 | 0.00 | 0.58 | 0.05 | 66 | 1006.6 |
| 20260507133714 | 13 | 281 | 3.2 | 12.9 | 0.00 | 0.58 | 0.05 | 67 | 1006.7 |
| 20260507133148 | 12 | 117 | 3.2 | 12.9 | 0.00 | 0.58 | 0.05 | 66 | 1006.8 |
| 20260507132624 | 12 | 341 | 3.2 | 12.9 | 0.00 | 0.58 | 0.05 | 69 | 1006.9 |
| 20260507132059 | 12 | 59 | 3.2 | 12.9 | 0.00 | 0.58 | 0.05 | 67 | 1007.0 |
| 20260507131538 | 12 | 65 | 1.6 | 9.7 | 0.00 | 0.58 | 0.05 | 69 | 1007.1 |
| 20260507131037 | 11 | 292 | 3.2 | 9.7 | 0.00 | 0.58 | 0.05 | 71 | 1007.2 |
| 20260507130538 | 11 | 86 | 3.2 | 16.1 | 0.00 | 0.58 | 0.05 | 71 | 1007.2 |
| 20260507130042 | 11 | 25 | 3.2 | 16.1 | 0.00 | 0.58 | 0.05 | 70 | 1007.2 |
| 20260507125512 | 11 | 21 | 1.6 | 6.4 | 0.00 | 0.58 | 0.05 | 75 | 1007.2 |
| 20260507125011 | 11 | 96 | 1.6 | 6.4 | 0.00 | 0.58 | 0.05 | 75 | 1007.3 |
| 20260507124442 | 11 | 141 | 3.2 | 6.4 | 0.00 | 0.58 | 0.05 | 76 | 1007.3 |
| 20260507123939 | 10 | 35 | 3.2 | 8.0 | 0.00 | 0.58 | 0.05 | 76 | 1007.3 |
| 20260507123437 | 10 | 252 | 1.6 | 9.7 | 0.00 | 0.58 | 0.05 | 78 | 1007.4 |
| 20260507122908 | 10 | 250 | 3.2 | 9.7 | 0.00 | 0.58 | 0.05 | 80 | 1007.4 |
| 20260507122407 | 10 | 69 | 4.8 | 9.7 | 0.00 | 0.58 | 0.05 | 80 | 1007.5 |
| 20260507121902 | 10 | 65 | 3.2 | 9.7 | 0.00 | 0.58 | 0.05 | 80 | 1007.4 |
| 20260507121401 | 9 | 289 | 1.6 | 9.7 | 0.00 | 0.58 | 0.05 | 81 | 1007.4 |
| 20260507120858 | 9 | 78 | 1.6 | 8.0 | 0.00 | 0.58 | 0.05 | 82 | 1007.5 |
| 20260507120854 | 9 | 77 | 1.6 | 4.8 | 0.00 | 0.58 | 0.05 | 81 | 1007.5 |
| 20260507115848 | 9 | 82 | 1.6 | 8.0 | 0.00 | 0.58 | 0.05 | 82 | 1007.5 |
| 20260507115345 | 9 | 91 | 1.6 | 6.4 | 0.00 | 0.58 | 0.05 | 82 | 1007.4 |
| 20260507114821 | 9 | 92 | 1.6 | 6.4 | 0.00 | 0.58 | 0.05 | 82 | 1007.5 |
| 20260507114816 | 8 | 138 | 1.6 | 4.8 | 0.00 | 0.58 | 0.05 | 83 | 1007.3 |
| 20260507113813 | 8 | 53 | 1.6 | 4.8 | 0.00 | 0.58 | 0.05 | 83 | 1007.4 |
| 20260507113244 | 8 | 63 | 1.6 | 4.8 | 0.00 | 0.58 | 0.05 | 84 | 1007.4 |
| 20260507112741 | 8 | 123 | 0.0 | 1.6 | 0.00 | 0.58 | 0.05 | 84 | 1007.3 |
| 20260507112511 | 8 | 178 | 1.6 | 3.2 | 0.00 | 0.58 | 0.05 | 85 | 1007.2 |
| 20260507111941 | 8 | 178 | 1.6 | 4.8 | 0.00 | 0.58 | 0.05 | 84 | 1007.0 |
| 20260507111209 | 8 | 180 | 1.6 | 4.8 | 0.00 | 0.58 | 0.05 | 84 | 1007.2 |
| 20260507111141 | 8 | 76 | 0.0 | 3.2 | 0.00 | 0.58 | 0.05 | 85 | 1007.1 |
| 20260507110138 | 8 | 76 | 0.0 | 1.6 | 0.00 | 0.58 | 0.05 | 86 | 1007.1 |
| 20260507105613 | 8 | 76 | 1.6 | 3.2 | 0.00 | 0.58 | 0.05 | 86 | 1007.3 |
| 20260507105044 | 8 | 76 | 0.0 | 3.2 | 0.00 | 0.58 | 0.05 | 86 | 1007.0 |
| 20260507104543 | 8 | 76 | 1.6 | 3.2 | 0.00 | 0.58 | 0.05 | 85 | 1006.9 |
| 20260507104015 | 8 | 76 | 1.6 | 3.2 | 0.00 | 0.58 | 0.05 | 85 | 1006.5 |
| 20260507103512 | 8 | 67 | 1.6 | 4.8 | 0.00 | 0.58 | 0.05 | 85 | 1006.7 |
| 20260507102945 | 8 | 65 | 0.0 | 4.8 | 0.00 | 0.58 | 0.05 | 85 | 1006.4 |
| 20260507102445 | 8 | 47 | 0.0 | 1.6 | 0.00 | 0.58 | 0.05 | 85 | 1006.6 |
| 20260507101914 | 8 | 47 | 1.6 | 8.0 | 0.00 | 0.58 | 0.05 | 86 | 1006.5 |
| 20260507101411 | 8 | 47 | 1.6 | 8.0 | 0.00 | 0.58 | 0.05 | 86 | 1006.5 |
| 20260507100904 | 8 | 178 | 0.0 | 3.2 | 0.00 | 0.58 | 0.05 | 86 | 1006.7 |
| 20260507100402 | 8 | 178 | 0.0 | 3.2 | 0.00 | 0.58 | 0.05 | 86 | 1006.5 |
| 20260507095837 | 8 | 178 | 0.0 | 3.2 | 0.00 | 0.58 | 0.05 | 86 | 1006.5 |
| 20260507095810 | 8 | 178 | 1.6 | 9.7 | 0.00 | 0.58 | 0.05 | 86 | 1006.5 |
| 20260507094741 | 8 | 235 | 1.6 | 9.7 | 0.00 | 0.58 | 0.05 | 86 | 1006.6 |
| 20260507094239 | 8 | 180 | 0.0 | 3.2 | 0.00 | 0.58 | 0.05 | 86 | 1006.9 |
| 20260507093734 | 8 | 71 | 0.0 | 3.2 | 0.00 | 0.58 | 0.05 | 86 | 1006.7 |
| 20260507093232 | 8 | 32 | 0.0 | 3.2 | 0.00 | 0.58 | 0.05 | 86 | 1006.6 |
| 20260507092705 | 8 | 32 | 1.6 | 4.8 | 0.00 | 0.58 | 0.05 | 86 | 1006.9 |
| 20260507092201 | 8 | 32 | 1.6 | 4.8 | 0.00 | 0.58 | 0.05 | 86 | 1006.7 |
| 20260507091638 | 8 | 26 | 1.6 | 4.8 | 0.03 | 0.58 | 0.05 | 86 | 1006.8 |
| 20260507091135 | 8 | 355 | 1.6 | 4.8 | 0.03 | 0.58 | 0.05 | 86 | 1006.8 |
| 20260507090636 | 8 | 71 | 1.6 | 8.0 | 0.03 | 0.58 | 0.05 | 87 | 1006.8 |
| 20260507090115 | 8 | 227 | 1.6 | 8.0 | 0.03 | 0.58 | 0.05 | 87 | 1006.9 |
| 20260507085809 | 8 | 84 | 0.0 | 4.8 | 0.03 | 0.58 | 0.05 | 88 | 1006.5 |
| 20260507085038 | 8 | 84 | 0.0 | 4.8 | 0.03 | 0.58 | 0.05 | 88 | 1006.6 |
| 20260507084515 | 8 | 67 | 0.0 | 3.2 | 0.03 | 0.58 | 0.05 | 87 | 1006.4 |
| 20260507083952 | 8 | 67 | 0.0 | 1.6 | 0.03 | 0.58 | 0.05 | 87 | 1006.8 |
| 20260507083720 | 8 | 67 | 0.0 | 1.6 | 0.03 | 0.58 | 0.05 | 87 | 1006.7 |
| 20260507083558 | 9 | 67 | 0.0 | 1.6 | 0.03 | 0.58 | 0.05 | 87 | 1006.6 |
| 20260507082426 | 9 | 67 | 0.0 | 3.2 | 0.03 | 0.58 | 0.05 | 87 | 1006.3 |
| 20260507082133 | 9 | 90 | 0.0 | 3.2 | 0.00 | 0.56 | 0.03 | 86 | 1006.4 |
| 20260507081352 | 9 | 90 | 0.0 | 3.2 | 0.00 | 0.56 | 0.03 | 86 | 1006.4 |
| 20260507080850 | 9 | 271 | 0.0 | 3.2 | 0.00 | 0.56 | 0.03 | 86 | 1006.3 |
| 20260507080349 | 9 | 271 | 0.0 | 3.2 | 0.00 | 0.56 | 0.03 | 86 | 1006.2 |
| 20260507075849 | 9 | 271 | 1.6 | 4.8 | 0.00 | 0.56 | 0.03 | 86 | 1006.1 |
| 20260507075349 | 10 | 5 | 0.0 | 4.8 | 0.00 | 0.56 | 0.03 | 86 | 1006.4 |
| 20260507074851 | 10 | 0 | 0.0 | 4.8 | 0.00 | 0.56 | 0.03 | 86 | 1006.4 |
| 20260507074612 | 10 | 5 | 1.6 | 6.4 | 0.00 | 0.56 | 0.03 | 86 | 1006.4 |
| 20260507073837 | 10 | 137 | 1.6 | 6.4 | 0.00 | 0.56 | 0.03 | 86 | 1006.7 |
| 20260507073313 | 10 | 15 | 1.6 | 6.4 | 0.00 | 0.56 | 0.03 | 86 | 1006.4 |
| 20260507072748 | 10 | 116 | 1.6 | 4.8 | 0.00 | 0.56 | 0.03 | 87 | 1006.1 |
| 20260507072229 | 10 | 116 | 1.6 | 4.8 | 0.00 | 0.56 | 0.03 | 87 | 1005.9 |
| 20260507071705 | 10 | 92 | 0.0 | 3.2 | 0.00 | 0.56 | 0.03 | 87 | 1006.0 |
| 20260507071204 | 10 | 92 | 1.6 | 3.2 | 0.00 | 0.56 | 0.03 | 87 | 1005.9 |
| 20260507070705 | 10 | 92 | 1.6 | 4.8 | 0.00 | 0.56 | 0.03 | 87 | 1005.9 |
| 20260507070204 | 10 | 140 | 0.0 | 3.2 | 0.00 | 0.56 | 0.03 | 87 | 1006.1 |
| 20260507065906 | 10 | 107 | 0.0 | 3.2 | 0.00 | 0.56 | 0.03 | 87 | 1006.1 |
| 20260507065138 | 10 | 101 | 0.0 | 3.2 | 0.00 | 0.56 | 0.03 | 87 | 1006.0 |
| 20260507065133 | 10 | 101 | 1.6 | 4.8 | 0.00 | 0.56 | 0.03 | 87 | 1005.7 |
| 20260507064358 | 10 | 101 | 0.0 | 4.8 | 0.00 | 0.56 | 0.03 | 87 | 1005.9 |
| 20260507063602 | 10 | 193 | 0.0 | 1.6 | 0.00 | 0.56 | 0.03 | 87 | 1006.1 |
| 20260507063307 | 10 | 193 | 0.0 | 1.6 | 0.00 | 0.56 | 0.03 | 87 | 1005.9 |
| 20260507062511 | 10 | 193 | 0.0 | 0.0 | 0.00 | 0.56 | 0.03 | 87 | 1005.9 |
| 20260507061941 | 10 | 193 | 0.0 | 3.2 | 0.00 | 0.56 | 0.03 | 87 | 1005.8 |
| 20260507061441 | 10 | 193 | 0.0 | 3.2 | 0.00 | 0.56 | 0.03 | 87 | 1005.8 |
| 20260507060911 | 10 | 198 | 0.0 | 4.8 | 0.00 | 0.56 | 0.03 | 87 | 1005.9 |
| 20260507060409 | 10 | 198 | 0.0 | 4.8 | 0.00 | 0.56 | 0.03 | 87 | 1005.9 |
| 20260507055842 | 10 | 76 | 0.0 | 4.8 | 0.00 | 0.56 | 0.03 | 87 | 1005.9 |
| 20260507055548 | 10 | 129 | 1.6 | 4.8 | 0.00 | 0.56 | 0.03 | 87 | 1006.0 |
| 20260507054817 | 10 | 42 | 1.6 | 3.2 | 0.03 | 0.56 | 0.03 | 88 | 1006.3 |
| 20260507054813 | 10 | 116 | 0.0 | 4.8 | 0.00 | 0.56 | 0.03 | 87 | 1006.2 |
| 20260507053801 | 11 | 57 | 1.6 | 4.8 | 0.03 | 0.56 | 0.03 | 88 | 1006.4 |
| 20260507053257 | 11 | 57 | 1.6 | 4.8 | 0.03 | 0.56 | 0.03 | 88 | 1006.3 |
| 20260507053030 | 11 | 267 | 1.6 | 3.2 | 0.03 | 0.56 | 0.03 | 88 | 1006.5 |
| 20260507052232 | 11 | 119 | 0.0 | 3.2 | 0.03 | 0.56 | 0.03 | 88 | 1006.3 |
| 20260507051959 | 11 | 119 | 1.6 | 3.2 | 0.03 | 0.56 | 0.03 | 88 | 1006.3 |
| 20260507051228 | 11 | 119 | 1.6 | 6.4 | 0.03 | 0.56 | 0.03 | 88 | 1006.5 |
| 20260507050659 | 11 | 120 | 0.0 | 6.4 | 0.03 | 0.56 | 0.03 | 88 | 1006.6 |
| 20260507050157 | 11 | 143 | 0.0 | 4.8 | 0.03 | 0.56 | 0.03 | 88 | 1006.3 |
| 20260507045630 | 11 | 98 | 1.6 | 4.8 | 0.05 | 0.56 | 0.03 | 88 | 1006.3 |
| 20260507045104 | 11 | 140 | 0.0 | 8.0 | 0.08 | 0.56 | 0.03 | 88 | 1006.3 |
| 20260507044813 | 11 | 150 | 1.6 | 8.0 | 0.05 | 0.53 | 0.03 | 88 | 1006.1 |
| 20260507044029 | 11 | 150 | 1.6 | 8.0 | 0.05 | 0.53 | 0.00 | 88 | 1006.2 |
| 20260507043528 | 11 | 170 | 1.6 | 8.0 | 0.05 | 0.53 | 0.00 | 88 | 1006.2 |
| 20260507043000 | 12 | 173 | 1.6 | 9.7 | 0.05 | 0.53 | 0.00 | 88 | 1006.1 |
| 20260507042457 | 12 | 178 | 1.6 | 9.7 | 0.05 | 0.53 | 0.00 | 87 | 1006.1 |
| 20260507041932 | 12 | 105 | 3.2 | 16.1 | 0.05 | 0.53 | 0.00 | 87 | 1006.2 |
| 20260507041636 | 12 | 201 | 1.6 | 16.1 | 0.05 | 0.53 | 0.00 | 87 | 1006.3 |
| 20260507040840 | 12 | 261 | 1.6 | 6.4 | 0.05 | 0.53 | 0.00 | 87 | 1006.3 |
| 20260507040548 | 13 | 198 | 1.6 | 6.4 | 0.05 | 0.53 | 0.00 | 88 | 1006.3 |
| 20260507035814 | 13 | 302 | 1.6 | 4.8 | 0.05 | 0.53 | 0.53 | 89 | 1006.3 |
| 20260507035545 | 13 | 167 | 1.6 | 4.8 | 0.00 | 0.48 | 0.51 | 89 | 1006.0 |
| 20260507035047 | 13 | 27 | 1.6 | 4.8 | 0.00 | 0.48 | 0.48 | 88 | 1006.0 |
| 20260507034523 | 13 | 159 | 1.6 | 3.2 | 0.00 | 0.48 | 0.48 | 88 | 1005.7 |
| 20260507033725 | 13 | 159 | 1.6 | 4.8 | 0.00 | 0.48 | 0.48 | 88 | 1005.6 |
| 20260507033203 | 13 | 306 | 0.0 | 3.2 | 0.00 | 0.48 | 0.48 | 88 | 1005.5 |
| 20260507032909 | 13 | 315 | 0.0 | 3.2 | 0.00 | 0.48 | 0.48 | 88 | 1005.4 |
| 20260507032118 | 13 | 315 | 1.6 | 4.8 | 0.00 | 0.48 | 0.48 | 88 | 1005.3 |
| 20260507031616 | 13 | 315 | 3.2 | 9.7 | 0.00 | 0.48 | 0.48 | 88 | 1005.3 |
| 20260507031345 | 14 | 20 | 4.8 | 12.9 | 0.00 | 0.48 | 0.48 | 88 | 1005.1 |
| 20260507030613 | 14 | 46 | 1.6 | 11.3 | 0.00 | 0.48 | 0.48 | 89 | 1005.2 |
| 20260507030049 | 15 | 274 | 1.6 | 11.3 | 0.00 | 0.48 | 0.48 | 90 | 1005.1 |
| 20260507025756 | 15 | 180 | 1.6 | 4.8 | 0.00 | 0.48 | 0.48 | 90 | 1005.0 |
| 20260507025021 | 15 | 18 | 1.6 | 4.8 | 0.00 | 0.48 | 0.48 | 90 | 1005.2 |
| 20260507025017 | 15 | 88 | 1.6 | 4.8 | 0.00 | 0.48 | 0.48 | 90 | 1005.0 |
| 20260507024012 | 15 | 143 | 1.6 | 8.0 | 0.00 | 0.48 | 0.48 | 90 | 1004.9 |
| 20260507023511 | 15 | 54 | 1.6 | 8.0 | 0.00 | 0.48 | 0.48 | 90 | 1005.1 |
| 20260507023006 | 15 | 120 | 1.6 | 6.4 | 0.00 | 0.48 | 0.48 | 90 | 1005.0 |
| 20260507022504 | 15 | 121 | 1.6 | 6.4 | 0.00 | 0.48 | 0.48 | 90 | 1005.0 |
| 20260507021938 | 15 | 87 | 1.6 | 4.8 | 0.00 | 0.48 | 0.48 | 90 | 1004.9 |
| 20260507021413 | 15 | 87 | 1.6 | 4.8 | 0.00 | 0.48 | 0.48 | 90 | 1004.7 |
| 20260507020847 | 15 | 145 | 1.6 | 6.4 | 0.00 | 0.48 | 0.48 | 90 | 1004.6 |
| 20260507020318 | 15 | 92 | 3.2 | 4.8 | 0.00 | 0.48 | 0.48 | 90 | 1004.7 |
| 20260507015817 | 15 | 58 | 1.6 | 6.4 | 0.00 | 0.48 | 0.48 | 90 | 1004.8 |
| 20260507015518 | 15 | 42 | 1.6 | 11.3 | 0.00 | 0.48 | 0.48 | 90 | 1004.8 |
| 20260507014747 | 15 | 75 | 1.6 | 11.3 | 0.00 | 0.48 | 0.48 | 90 | 1004.8 |
| 20260507014226 | 15 | 112 | 1.6 | 6.4 | 0.00 | 0.48 | 0.48 | 90 | 1004.9 |
| 20260507013648 | 15 | 146 | 1.6 | 4.8 | 0.00 | 0.48 | 0.48 | 90 | 1004.9 |
| 20260507013145 | 15 | 114 | 1.6 | 4.8 | 0.00 | 0.48 | 0.48 | 90 | 1004.8 |
| 20260507012621 | 15 | 113 | 1.6 | 4.8 | 0.00 | 0.48 | 0.48 | 90 | 1004.8 |
| 20260507012052 | 15 | 112 | 1.6 | 3.2 | 0.00 | 0.48 | 0.48 | 90 | 1004.9 |
| 20260507011550 | 15 | 98 | 3.2 | 4.8 | 0.00 | 0.48 | 0.48 | 90 | 1004.9 |
| 20260507011253 | 15 | 100 | 3.2 | 4.8 | 0.00 | 0.48 | 0.48 | 90 | 1005.0 |
| 20260507010521 | 15 | 330 | 1.6 | 4.8 | 0.00 | 0.48 | 0.48 | 90 | 1005.0 |
| 20260507010226 | 15 | 136 | 1.6 | 4.8 | 0.00 | 0.48 | 0.48 | 90 | 1005.0 |
| 20260507005450 | 15 | 136 | 1.6 | 6.4 | 0.00 | 0.48 | 0.48 | 90 | 1004.9 |
| 20260507004949 | 15 | 136 | 3.2 | 6.4 | 0.00 | 0.48 | 0.48 | 90 | 1004.9 |
| 20260507004420 | 15 | 130 | 3.2 | 8.0 | 0.00 | 0.48 | 0.48 | 90 | 1004.9 |
| 20260507003919 | 15 | 164 | 3.2 | 8.0 | 0.00 | 0.48 | 0.48 | 90 | 1004.8 |
| 20260507003350 | 15 | 161 | 1.6 | 6.4 | 0.00 | 0.48 | 0.48 | 90 | 1004.7 |
| 20260507003120 | 15 | 207 | 1.6 | 6.4 | 0.00 | 0.48 | 0.48 | 90 | 1004.7 |
| 20260507002320 | 15 | 207 | 3.2 | 6.4 | 0.03 | 0.48 | 0.48 | 90 | 1004.7 |
| 20260507001818 | 15 | 134 | 3.2 | 6.4 | 0.03 | 0.48 | 0.48 | 90 | 1004.7 |
| 20260507001314 | 15 | 107 | 3.2 | 6.4 | 0.03 | 0.48 | 0.48 | 90 | 1004.7 |
| 20260507000813 | 15 | 62 | 3.2 | 6.4 | 0.08 | 0.48 | 0.48 | 90 | 1004.8 |
| 20260507000244 | 15 | 148 | 1.6 | 4.8 | 0.13 | 0.48 | 0.48 | 90 | 1004.8 |
| 20260506235743 | 15 | 153 | 1.6 | 4.8 | 0.15 | 0.48 | 0.48 | 90 | 1004.7 |
| 20260506235214 | 15 | 152 | 3.2 | 6.4 | 0.15 | 0.48 | 0.48 | 90 | 1004.5 |
| 20260506234713 | 15 | 143 | 1.6 | 6.4 | 0.15 | 0.48 | 0.48 | 90 | 1004.6 |
| 20260506234208 | 15 | 146 | 1.6 | 8.0 | 0.18 | 0.48 | 0.48 | 90 | 1004.6 |
| 20260506233706 | 15 | 150 | 3.2 | 8.0 | 0.20 | 0.48 | 0.48 | 90 | 1004.6 |
| 20260506233159 | 15 | 142 | 1.6 | 8.0 | 0.23 | 0.48 | 0.48 | 89 | 1004.6 |
| 20260506233154 | 15 | 148 | 3.2 | 8.0 | 0.23 | 0.48 | 0.48 | 90 | 1004.6 |
| 20260506232140 | 15 | 173 | 3.2 | 8.0 | 0.20 | 0.46 | 0.46 | 89 | 1004.6 |
| 20260506231637 | 15 | 130 | 3.2 | 4.8 | 0.25 | 0.46 | 0.46 | 89 | 1004.6 |
| 20260506231409 | 15 | 101 | 3.2 | 9.7 | 0.23 | 0.43 | 0.46 | 89 | 1004.7 |
| 20260506230636 | 15 | 99 | 3.2 | 9.7 | 0.20 | 0.38 | 0.41 | 89 | 1004.7 |
| 20260506230108 | 15 | 162 | 1.6 | 6.4 | 0.18 | 0.36 | 0.36 | 89 | 1004.7 |
| 20260506225606 | 15 | 162 | 3.2 | 6.4 | 0.15 | 0.33 | 0.33 | 89 | 1004.7 |
| 20260506225041 | 15 | 163 | 1.6 | 6.4 | 0.15 | 0.33 | 0.33 | 89 | 1004.8 |
| 20260506224743 | 15 | 161 | 1.6 | 6.4 | 0.13 | 0.30 | 0.30 | 89 | 1004.9 |
| 20260506224011 | 15 | 171 | 1.6 | 6.4 | 0.10 | 0.28 | 0.28 | 89 | 1004.8 |
| 20260506223443 | 15 | 159 | 1.6 | 6.4 | 0.10 | 0.28 | 0.28 | 88 | 1004.8 |
| 20260506222943 | 15 | 160 | 3.2 | 9.7 | 0.08 | 0.25 | 0.25 | 88 | 1004.8 |
| 20260506222421 | 15 | 168 | 3.2 | 9.7 | 0.08 | 0.25 | 0.25 | 88 | 1004.9 |
| 20260506222153 | 15 | 128 | 3.2 | 11.3 | 0.05 | 0.23 | 0.23 | 88 | 1005.0 |
| 20260506221418 | 15 | 148 | 3.2 | 11.3 | 0.03 | 0.20 | 0.20 | 88 | 1005.0 |
| 20260506220915 | 15 | 174 | 3.2 | 8.0 | 0.03 | 0.20 | 0.20 | 88 | 1005.0 |
| 20260506220416 | 15 | 190 | 3.2 | 8.0 | 0.00 | 0.18 | 0.18 | 88 | 1005.1 |
| 20260506215914 | 15 | 162 | 1.6 | 8.0 | 0.03 | 0.18 | 0.18 | 88 | 1005.1 |
| 20260506215354 | 15 | 138 | 3.2 | 8.0 | 0.03 | 0.18 | 0.18 | 88 | 1005.3 |
| 20260506214857 | 15 | 141 | 3.2 | 8.0 | 0.03 | 0.18 | 0.18 | 88 | 1005.2 |
| 20260506214344 | 15 | 176 | 3.2 | 8.0 | 0.03 | 0.18 | 0.18 | 88 | 1005.1 |
| 20260506213847 | 15 | 175 | 3.2 | 8.0 | 0.05 | 0.18 | 0.18 | 88 | 1005.0 |
| 20260506213321 | 15 | 169 | 1.6 | 6.4 | 0.05 | 0.18 | 0.18 | 88 | 1005.1 |
| 20260506212821 | 15 | 135 | 1.6 | 4.8 | 0.05 | 0.18 | 0.18 | 88 | 1005.2 |
| 20260506212306 | 15 | 132 | 3.2 | 8.0 | 0.08 | 0.18 | 0.18 | 88 | 1005.3 |
| 20260506211805 | 15 | 176 | 3.2 | 8.0 | 0.08 | 0.18 | 0.18 | 87 | 1005.4 |
| 20260506211242 | 15 | 184 | 3.2 | 8.0 | 0.08 | 0.18 | 0.18 | 87 | 1005.5 |
| 20260506210725 | 15 | 188 | 3.2 | 8.0 | 0.10 | 0.18 | 0.18 | 87 | 1005.5 |
| 20260506210455 | 15 | 162 | 3.2 | 8.0 | 0.10 | 0.18 | 0.18 | 87 | 1005.5 |
| 20260506205958 | 15 | 153 | 3.2 | 6.4 | 0.08 | 0.15 | 0.15 | 87 | 1005.8 |
| 20260506205209 | 15 | 182 | 3.2 | 9.7 | 0.08 | 0.15 | 0.15 | 86 | 1005.7 |
| 20260506204710 | 15 | 169 | 3.2 | 8.0 | 0.08 | 0.15 | 0.15 | 87 | 1005.8 |
| 20260506204149 | 16 | 139 | 3.2 | 6.4 | 0.05 | 0.13 | 0.15 | 86 | 1005.8 |
| 20260506203649 | 16 | 155 | 3.2 | 11.3 | 0.05 | 0.13 | 0.13 | 86 | 1005.8 |
| 20260506203149 | 16 | 297 | 1.6 | 11.3 | 0.05 | 0.13 | 0.13 | 86 | 1005.8 |
| 20260506202646 | 16 | 143 | 3.2 | 4.8 | 0.08 | 0.13 | 0.13 | 86 | 1005.8 |
| 20260506202417 | 16 | 134 | 3.2 | 6.4 | 0.05 | 0.10 | 0.10 | 85 | 1005.8 |
| 20260506201849 | 16 | 189 | 3.2 | 6.4 | 0.05 | 0.10 | 0.10 | 85 | 1005.6 |
| 20260506201051 | 16 | 205 | 3.2 | 6.4 | 0.03 | 0.08 | 0.08 | 84 | 1005.7 |
| 20260506200525 | 16 | 138 | 3.2 | 6.4 | 0.05 | 0.08 | 0.08 | 84 | 1005.8 |
| 20260506195959 | 16 | 138 | 1.6 | 6.4 | 0.05 | 0.08 | 0.08 | 85 | 1005.7 |
| 20260506195432 | 16 | 172 | 1.6 | 4.8 | 0.05 | 0.08 | 0.08 | 84 | 1005.7 |
| 20260506194928 | 16 | 173 | 3.2 | 9.7 | 0.08 | 0.08 | 0.08 | 84 | 1005.8 |
| 20260506194425 | 16 | 338 | 3.2 | 9.7 | 0.08 | 0.08 | 0.08 | 83 | 1005.7 |
| 20260506193924 | 17 | 136 | 1.6 | 3.2 | 0.08 | 0.08 | 0.08 | 84 | 1005.7 |
| 20260506193358 | 17 | 136 | 3.2 | 6.4 | 0.08 | 0.08 | 0.08 | 83 | 1005.8 |
| 20260506192829 | 17 | 128 | 3.2 | 9.7 | 0.05 | 0.05 | 0.05 | 82 | 1005.8 |
| 20260506192329 | 17 | 130 | 3.2 | 9.7 | 0.05 | 0.05 | 0.05 | 82 | 1005.8 |
| 20260506191759 | 17 | 157 | 3.2 | 8.0 | 0.05 | 0.05 | 0.05 | 81 | 1005.7 |
| 20260506191258 | 17 | 158 | 3.2 | 8.0 | 0.05 | 0.05 | 0.05 | 79 | 1005.7 |
| 20260506190729 | 18 | 114 | 3.2 | 6.4 | 0.03 | 0.03 | 0.03 | 79 | 1005.8 |
| 20260506190228 | 18 | 111 | 3.2 | 8.0 | 0.03 | 0.03 | 0.03 | 78 | 1005.8 |
| 20260506185932 | 18 | 308 | 1.6 | 8.0 | 0.03 | 0.03 | 0.03 | 77 | 1006.0 |
| 20260506185133 | 18 | 131 | 1.6 | 4.8 | 0.03 | 0.03 | 0.03 | 77 | 1005.9 |
| 20260506184631 | 19 | 113 | 3.2 | 6.4 | 0.00 | 0.00 | 0.00 | 76 | 1005.9 |
| 20260506184123 | 19 | 158 | 3.2 | 8.0 | 0.00 | 0.00 | 0.00 | 75 | 1006.1 |
| 20260506183852 | 20 | 41 | 1.6 | 8.0 | 0.00 | 0.00 | 0.00 | 73 | 1005.9 |
| 20260506183119 | 20 | 67 | 3.2 | 12.9 | 0.00 | 0.00 | 0.00 | 73 | 1006.1 |
| 20260506182822 | 20 | 117 | 4.8 | 12.9 | 0.00 | 0.00 | 0.00 | 70 | 1006.0 |
| 20260506182048 | 20 | 150 | 3.2 | 12.9 | 0.00 | 0.00 | 0.00 | 70 | 1006.2 |
| 20260506181522 | 20 | 172 | 3.2 | 9.7 | 0.00 | 0.00 | 0.00 | 70 | 1006.0 |
| 20260506181500 | 21 | 148 | 4.8 | 12.9 | 0.00 | 0.00 | 0.00 | 68 | 1006.0 |
| 20260506180452 | 21 | 164 | 4.8 | 12.9 | 0.00 | 0.00 | 0.00 | 64 | 1006.0 |
| 20260506175951 | 21 | 123 | 4.8 | 14.5 | 0.00 | 0.00 | 0.00 | 64 | 1006.1 |
| 20260506175423 | 21 | 200 | 4.8 | 14.5 | 0.00 | 0.00 | 0.00 | 61 | 1006.1 |
| 20260506174922 | 21 | 159 | 4.8 | 14.5 | 0.00 | 0.00 | 0.00 | 60 | 1006.1 |
| 20260506174353 | 22 | 182 | 6.4 | 19.3 | 0.00 | 0.00 | 0.00 | 59 | 1006.1 |
| 20260506174122 | 22 | 148 | 4.8 | 19.3 | 0.00 | 0.00 | 0.00 | 59 | 1006.0 |
| 20260506173323 | 22 | 225 | 3.2 | 12.9 | 0.00 | 0.00 | 0.00 | 61 | 1006.1 |
| 20260506172821 | 22 | 203 | 4.8 | 12.9 | 0.00 | 0.00 | 0.00 | 60 | 1005.9 |
| 20260506172317 | 22 | 228 | 4.8 | 12.9 | 0.00 | 0.00 | 0.00 | 60 | 1005.9 |
| 20260506172048 | 22 | 179 | 4.8 | 17.7 | 0.00 | 0.00 | 0.00 | 61 | 1006.0 |
| 20260506171247 | 22 | 163 | 3.2 | 17.7 | 0.00 | 0.00 | 0.00 | 61 | 1006.1 |
| 20260506170744 | 22 | 170 | 3.2 | 11.3 | 0.00 | 0.00 | 0.00 | 63 | 1006.2 |